TimeEDT,TemperatureF,Dew PointF,Humidity,Sea Level PressureIn,VisibilityMPH,Wind Direction,Wind SpeedMPH,Gust SpeedMPH,PrecipitationIn,Events,Conditions,WindDirDegrees,DateUTC
12:53 AM,68.0,62.1,81,30.09,10.0,Calm,Calm,-,N/A,,Mostly Cloudy,0,2013-05-17 04:53:00
1:53 AM,68.0,62.1,81,30.07,10.0,SE,5.8,-,N/A,,Mostly Cloudy,140,2013-05-17 05:53:00
2:53 AM,68.0,62.1,81,30.06,10.0,Calm,Calm,-,N/A,,Scattered Clouds,0,2013-05-17 06:53:00
3:53 AM,64.9,62.1,90,30.06,10.0,Calm,Calm,-,N/A,,Scattered Clouds,0,2013-05-17 07:53:00
4:53 AM,64.9,61.0,87,30.07,10.0,Calm,Calm,-,N/A,,Mostly Cloudy,0,2013-05-17 08:53:00
5:53 AM,64.9,62.1,90,30.08,10.0,Calm,Calm,-,N/A,,Scattered Clouds,0,2013-05-17 09:53:00
6:53 AM,64.9,61.0,87,30.09,10.0,Calm,Calm,-,N/A,,Scattered Clouds,0,2013-05-17 10:53:00
7:53 AM,70.0,64.9,84,30.11,10.0,East,3.5,-,N/A,,Scattered Clouds,90,2013-05-17 11:53:00
8:53 AM,73.9,64.9,73,30.11,10.0,ESE,3.5,-,N/A,,Partly Cloudy,110,2013-05-17 12:53:00
9:53 AM,78.1,64.0,62,30.12,10.0,Variable,5.8,-,N/A,,Partly Cloudy,0,2013-05-17 13:53:00
10:53 AM,80.1,61.0,52,30.12,10.0,South,5.8,-,N/A,,Scattered Clouds,180,2013-05-17 14:53:00
11:53 AM,82.0,62.1,51,30.12,10.0,Calm,Calm,-,N/A,,Scattered Clouds,0,2013-05-17 15:53:00
12:53 PM,84.0,62.1,47,30.10,10.0,SE,4.6,-,N/A,,Scattered Clouds,140,2013-05-17 16:53:00
1:53 PM,84.0,61.0,46,30.09,10.0,Variable,4.6,-,N/A,,Scattered Clouds,0,2013-05-17 17:53:00
2:53 PM,87.1,59.0,39,30.08,10.0,Variable,3.5,-,N/A,,Scattered Clouds,0,2013-05-17 18:53:00
3:53 PM,87.1,60.1,40,30.06,10.0,Variable,4.6,-,N/A,,Scattered Clouds,0,2013-05-17 19:53:00
4:53 PM,86.0,64.9,49,30.06,10.0,ENE,13.8,27.6,N/A,,Mostly Cloudy,70,2013-05-17 20:53:00
5:53 PM,82.0,64.9,56,30.06,10.0,ESE,16.1,-,N/A,,Mostly Cloudy,110,2013-05-17 21:53:00
6:53 PM,81.0,63.0,54,30.07,10.0,ESE,13.8,-,N/A,,Mostly Cloudy,110,2013-05-17 22:53:00
7:53 PM,78.1,64.9,64,30.08,10.0,East,13.8,-,N/A,,Partly Cloudy,100,2013-05-17 23:53:00
8:53 PM,75.9,66.9,74,30.09,10.0,ESE,9.2,-,N/A,,Clear,110,2013-05-18 00:53:00
9:53 PM,75.0,66.9,76,30.11,10.0,SE,8.1,-,N/A,,Clear,130,2013-05-18 01:53:00
10:53 PM,73.0,66.9,81,30.12,10.0,ESE,5.8,-,N/A,,Clear,120,2013-05-18 02:53:00
11:53 PM,72.0,66.9,84,30.12,10.0,ESE,5.8,-,N/A,,Clear,120,2013-05-18 03:53:00